Lapse_Rate
7.4 7.3 7.4 7.3 7.2 7.0 6.9 7.0 7.0 6.8 6.7 6.6 6.5 6.5 6.6 6.7 6.2 6.1 5.9 6.1 6.2 6.0 6.0 6.2 6.1 6.2 6.3 6.3 6.2 6.1 5.8 5.5 5.5 5.7 5.4 5.0 5.0 4.8 4.8 5.0 5.0 5.2 5.4
7.8 7.6 7.4 7.2 7.1 7.2 7.0 6.8 6.9 6.9 6.8 6.8 6.6 6.6 6.8 6.5 6.1 6.2 5.9 6.1 6.1 6.1 6.1 6.2 6.2 6.3 6.3 6.3 6.1 6.1 5.8 5.6 5.6 5.5 5.3 4.8 4.9 4.8 4.9 5.0 4.8 4.9 5.1
8.2 7.8 7.5 7.3 7.1 6.9 7.0 6.9 6.7 6.7 6.7 6.7 6.9 6.9 6.7 6.2 6.1 6.2 6.0 6.2 6.3 6.0 6.0 6.1 6.3 6.4 6.4 6.3 6.0 6.0 5.7 5.7 5.8 5.6 5.4 4.9 4.9 4.7 4.7 4.8 4.7 4.9 5.1
8.1 8.0 7.9 7.6 7.1 6.7 6.6 6.5 6.6 6.6 6.6 6.7 6.9 6.8 6.6 6.2 6.2 6.3 6.2 6.3 6.2 6.0 5.9 6.1 6.4 6.4 6.4 6.4 6.0 5.9 5.7 5.7 5.9 5.6 5.3 4.9 4.9 4.6 4.5 4.8 4.8 5.0 5.4
7.6 8.0 7.8 7.7 7.4 7.0 6.5 6.5 6.2 6.3 6.5 6.5 6.6 6.4 6.4 6.6 6.4 6.1 6.2 6.3 6.2 6.0 5.9 6.1 6.4 6.4 6.5 6.3 6.2 5.8 5.4 5.6 6.0 5.6 5.3 4.9 4.7 4.6 4.5 4.8 4.9 5.0 5.3
7.9 7.8 7.8 7.9 7.7 7.5 7.2 6.8 6.6 6.4 6.3 6.4 6.5 6.4 6.5 6.4 6.0 6.0 6.1 6.1 6.2 6.0 6.0 6.0 6.4 6.4 6.5 6.3 6.2 5.9 5.3 5.6 5.7 5.7 5.4 5.3 4.7 4.6 4.5 4.8 4.8 5.0 5.3
7.4 6.8 6.7 7.0 7.1 7.3 7.4 7.3 6.9 6.4 6.3 6.3 6.3 6.4 6.7 6.5 6.3 6.2 6.2 6.2 6.4 6.2 6.0 6.1 6.2 6.4 6.5 6.3 6.2 5.8 5.6 5.4 5.6 5.8 5.4 5.2 4.7 4.4 4.5 4.6 4.9 4.8 5.2
7.7 7.3 6.6 5.9 6.2 6.6 7.0 7.1 7.1 7.1 6.8 6.5 6.4 6.5 6.4 6.8 6.5 6.4 6.3 6.3 6.4 6.3 6.2 6.1 6.2 6.3 6.5 6.5 6.3 6.0 5.6 5.3 5.5 5.6 5.6 5.4 5.0 4.3 4.4 4.3 4.7 4.7 4.8
6.4 6.3 6.5 6.2 5.7 5.6 6.0 6.5 7.1 7.3 7.1 6.9 6.5 6.4 6.3 6.5 6.6 6.7 6.5 6.4 6.5 6.4 6.3 6.1 6.2 6.3 6.4 6.6 6.5 6.1 5.5 5.6 5.3 5.3 5.7 5.5 5.4 4.3 4.3 4.4 4.2 4.6 4.2
6.3 6.4 6.2 5.9 5.5 5.2 5.2 5.5 6.3 6.8 7.3 7.1 6.8 6.6 6.6 6.8 6.6 6.5 6.3 6.2 6.6 6.6 6.4 6.3 6.2 6.4 6.3 6.7 6.6 6.1 5.6 5.6 5.5 5.0 5.7 5.4 5.5 4.9 4.2 4.2 4.2 4.1 4.3
6.5 6.2 6.0 6.1 6.0 5.8 5.4 5.1 5.2 5.7 6.4 7.0 6.6 6.7 6.8 6.4 6.4 6.2 6.0 6.3 6.8 6.7 6.6 6.4 6.3 6.3 6.5 6.6 6.6 6.2 5.6 5.4 5.6 5.0 5.4 5.5 5.3 5.2 4.5 4.1 4.0 3.9 3.9
6.3 6.4 6.4 6.3 6.1 5.9 5.9 5.6 5.5 5.4 5.4 5.7 6.4 6.5 6.5 6.7 6.6 6.3 6.6 6.0 5.5 6.7 6.9 6.7 6.3 6.3 6.5 6.6 6.6 6.4 6.0 5.2 5.4 5.2 5.1 5.5 5.3 5.1 4.8 4.2 4.2 3.9 3.8
5.9 5.9 6.2 6.3 6.6 6.3 5.8 5.9 5.9 5.7 5.8 5.6 5.6 6.2 6.4 6.6 7.0 7.1 6.4 6.4 7.2 6.5 6.9 7.2 6.9 6.4 6.5 6.8 6.6 6.4 6.2 5.6 5.2 5.2 4.9 5.2 5.4 5.2 4.9 4.6 4.4 4.2 3.8
5.8 6.0 6.0 6.2 6.5 6.7 6.1 5.8 5.9 6.0 5.9 5.9 5.7 5.9 6.1 6.2 6.6 6.3 5.9 6.5 7.3 6.9 7.1 7.0 6.9 6.8 6.6 7.0 6.8 6.6 6.4 6.0 5.5 5.1 5.1 4.9 5.4 5.3 5.0 4.7 4.5 4.8 4.4
5.8 5.8 5.9 5.8 5.9 6.3 6.5 6.1 5.7 5.9 6.0 5.9 5.9 6.0 6.2 6.3 6.6 6.2 6.2 6.1 6.3 6.8 6.4 6.9 6.8 7.0 6.6 6.9 7.1 6.9 6.5 6.2 5.7 5.2 5.0 5.0 5.3 5.3 5.2 5.0 4.6 4.4 4.8
5.9 5.8 5.6 5.5 5.6 5.8 6.0 6.3 6.0 5.7 5.9 6.1 6.1 6.2 6.3 6.4 6.5 6.5 6.4 6.0 5.5 6.1 6.1 6.6 6.1 6.8 6.8 6.9 7.0 6.9 6.8 6.2 6.0 5.6 4.7 4.8 4.9 5.2 5.2 5.2 4.9 4.6 4.6
6.1 6.0 5.8 5.3 5.1 5.3 5.5 5.9 6.2 6.0 6.0 5.9 6.1 6.5 6.6 6.6 6.5 6.4 6.7 6.0 5.3 5.5 5.9 6.3 6.1 6.6 7.0 6.6 7.0 6.9 6.9 6.5 6.1 6.0 5.1 4.7 4.7 4.7 5.1 5.1 5.4 5.3 4.8
6.2 6.3 6.0 5.6 5.3 5.3 5.2 5.6 5.6 6.0 6.1 6.1 6.1 6.4 6.6 6.7 6.5 6.3 6.4 5.7 5.4 5.3 5.7 5.9 6.2 6.5 6.7 6.7 7.1 7.1 6.8 6.6 6.4 6.3 5.6 5.0 4.8 4.8 4.7 4.7 4.8 5.0 5.1
6.5 6.4 6.5 6.2 5.8 6.0 5.7 5.5 5.7 5.9 6.1 6.0 6.0 6.1 6.4 6.6 6.6 6.5 5.9 5.3 5.3 5.2 5.2 5.8 6.1 6.6 6.6 6.5 7.0 6.9 6.6 6.8 6.2 6.3 6.0 5.6 5.0 4.8 4.7 4.7 4.5 4.7 4.9
6.8 6.6 6.6 6.7 6.6 6.6 6.3 5.9 6.1 6.0 6.3 6.0 6.2 6.2 6.3 6.3 6.1 5.8 5.7 5.2 5.2 5.5 5.9 6.2 6.3 6.6 6.7 6.6 6.9 6.7 6.6 6.7 6.5 6.4 6.1 6.3 6.3 5.6 5.2 4.8 4.7 4.6 4.5
6.3 6.4 6.5 6.6 6.8 6.8 6.8 6.6 6.9 6.5 6.3 6.2 6.1 5.8 6.0 5.7 5.3 5.3 5.5 5.4 5.5 5.9 6.1 6.4 6.5 6.3 6.5 6.3 6.5 6.7 6.5 6.3 6.5 6.3 6.2 6.1 6.2 6.2 5.8 5.0 4.8 4.8 4.7
6.4 6.7 6.8 6.6 6.7 6.6 6.9 6.9 7.0 7.5 7.1 6.2 6.1 6.1 5.6 5.5 5.4 5.4 5.5 5.5 5.7 5.6 5.9 6.1 6.3 5.9 6.0 5.7 6.2 6.3 6.2 6.2 6.3 6.4 6.3 6.0 6.0 6.1 6.1 6.0 5.7 5.5 5.4
6.6 6.6 6.6 6.5 6.7 6.9 6.8 7.0 7.1 7.4 7.2 6.4 6.0 6.0 5.8 5.6 5.6 5.9 6.0 6.0 5.7 5.8 5.7 5.7 6.0 6.0 5.5 5.1 5.6 5.9 6.2 6.1 6.2 6.4 6.4 6.2 6.1 6.1 6.1 6.2 6.1 6.1 6.0
6.8 6.9 6.8 6.6 6.8 6.9 7.0 7.0 7.0 7.0 6.8 6.2 5.9 6.1 5.7 5.5 5.6 5.8 5.9 5.9 5.8 5.5 5.3 5.8 5.7 5.1 4.8 4.4 5.3 5.8 6.1 6.3 6.3 6.4 6.4 6.3 6.3 6.2 6.3 6.3 6.3 6.4 6.4
6.6 6.5 6.5 6.6 6.6 7.0 7.2 7.2 7.1 6.9 6.1 6.0 5.8 5.6 5.6 5.4 5.7 5.6 5.8 5.7 5.7 5.5 5.4 5.1 5.3 4.5 5.1 5.2 5.3 5.7 5.9 6.2 6.6 6.4 6.7 6.6 6.4 6.3 6.3 6.5 6.6 6.6 6.8
6.4 6.4 6.3 6.3 6.7 7.0 6.9 6.9 6.5 6.5 6.2 6.0 6.1 5.9 5.5 5.5 5.4 5.4 5.5 5.7 5.4 5.7 5.2 4.5 4.6 4.9 5.0 4.9 5.4 5.8 5.8 6.1 6.5 6.5 6.8 6.5 6.2 6.2 6.4 6.6 6.7 6.8 6.8
Wind_Speed
9 10 9 8 7 6 8 8 8 6 7 6 6 6 7 6 5 4 5 4 1 1 2 2 3 1 2 2 2 2 1 2 5 2 2 3 4 5 6 13 13 13 10
8 8 9 7 7 7 8 8 7 8 7 7 7 6 6 6 5 5 5 1 2 2 1 3 4 3 3 3 2 3 3 3 4 7 2 2 4 4 3 5 5 11 9
7 8 7 8 8 11 11 9 7 8 7 7 6 7 6 6 6 6 4 4 3 3 4 1 2 2 3 2 2 4 3 3 3 4 3 1 2 1 4 4 4 6 7
7 6 6 6 9 9 8 8 9 9 8 8 7 7 7 7 6 5 5 4 4 4 4 2 1 1 5 5 3 4 5 5 4 4 3 2 2 2 3 2 3 4 3
7 5 5 4 4 5 6 6 7 7 9 8 6 6 7 6 5 6 6 6 6 6 4 2 3 3 7 6 5 5 6 4 4 4 3 2 1 1 3 1 2 2 1
12 11 10 7 6 6 6 7 7 8 9 6 6 7 7 5 10 13 8 6 6 6 5 3 4 5 5 6 9 10 8 8 4 4 3 3 3 2 3 2 2 2 1
8 7 8 9 9 9 7 6 8 9 7 7 7 8 9 7 12 11 8 6 7 6 6 5 4 3 5 5 7 10 9 6 8 6 5 5 5 6 5 4 2 2 2
7 5 5 6 7 7 7 8 9 6 6 7 9 10 8 7 14 13 11 7 6 6 7 7 6 5 4 6 7 6 5 5 6 4 6 6 5 7 5 4 4 2 3
6 6 6 5 7 8 11 11 10 6 5 9 9 10 10 7 14 11 8 6 5 4 4 5 7 7 8 9 7 6 4 3 4 6 9 12 12 15 13 5 4 2 1
5 5 4 5 6 6 9 11 10 9 9 6 5 5 9 8 14 12 7 4 5 2 2 5 10 8 12 10 7 6 5 4 1 0 3 3 8 10 19 7 5 4 2
6 5 4 5 5 4 5 5 8 8 1 6 9 9 10 12 14 15 12 10 3 3 4 3 4 13 14 12 9 6 6 4 3 2 3 3 3 5 4 4 7 4 3
6 7 7 5 3 4 5 4 6 5 2 8 8 8 7 10 18 28 23 11 7 8 7 5 5 13 12 11 9 9 7 4 4 3 3 2 3 3 3 4 9 8 5
7 7 7 7 5 3 3 4 3 2 3 5 6 6 6 5 7 18 28 26 20 12 9 11 13 16 14 8 8 10 8 4 4 3 4 3 2 3 3 2 2 2 1
8 8 7 6 7 5 3 2 3 4 4 4 5 6 7 6 6 7 9 7 14 14 10 9 10 8 8 7 5 5 5 5 5 4 3 2 2 2 3 2 2 2 1
8 7 7 6 7 5 6 4 4 5 4 5 7 7 8 10 10 2 4 5 4 7 9 5 4 3 4 3 3 4 4 4 4 4 3 4 4 4 3 3 2 2 2
8 7 7 6 5 5 6 4 10 10 8 6 11 10 7 8 7 7 8 8 11 13 4 4 4 5 6 5 5 4 3 5 4 4 4 4 4 5 4 3 2 3 3
8 8 7 6 6 6 5 4 5 5 9 7 2 11 16 14 9 9 13 15 16 8 3 4 6 6 5 5 5 4 4 4 3 3 4 5 4 4 7 4 3 4 4
8 12 8 7 7 6 6 5 5 4 6 3 4 1 9 12 13 16 16 12 6 1 3 6 6 6 5 6 6 4 3 3 2 4 3 3 4 4 4 4 4 4 4
8 6 7 6 6 7 5 5 4 5 7 5 2 2 2 5 6 13 11 7 8 7 4 5 4 4 3 5 5 5 4 4 2 3 3 2 2 4 3 4 4 6 6
8 13 13 7 7 6 6 6 5 5 5 5 4 3 5 3 5 6 3 6 7 6 6 6 6 5 5 5 6 6 5 4 3 3 2 2 3 2 3 4 3 3 2
8 8 11 6 7 6 5 6 5 4 5 5 5 4 8 3 4 8 6 4 5 7 7 7 6 6 5 6 6 5 5 4 4 3 2 3 3 3 3 3 2 3 2
7 7 7 6 6 5 5 6 5 5 6 5 4 4 8 2 3 3 3 4 3 3 4 6 5 5 4 7 6 5 5 6 5 4 3 2 3 3 4 4 3 2 2
8 8 8 6 6 6 4 5 6 6 6 6 6 6 5 1 3 4 4 4 4 4 4 6 7 6 5 5 6 5 6 5 4 5 5 3 3 4 3 3 3 3 3
7 9 8 6 7 7 7 6 6 7 6 6 7 7 6 6 6 6 6 6 7 6 6 7 7 9 8 7 9 10 11 11 8 8 7 5 3 4 3 3 3 3 2
3 3 4 5 5 6 5 5 6 6 6 7 6 6 6 7 7 8 7 8 8 8 8 7 7 11 12 12 10 11 13 13 11 10 9 6 4 4 3 4 3 2 2
2 1 1 1 1 1 2 5 6 7 7 7 7 8 8 9 8 8 7 8 8 8 9 6 11 16 18 13 13 14 13 13 11 11 9 6 4 4 3 4 5 3 2
Wind_Direction
203 211 214 214 213 209 209 220 217 215 217 227 234 215 221 226 231 227 236 255 235 331 336 46 6 39 16 83 97 86 86 103 125 72 86 55 44 52 37 57 67 71 93
208 205 213 214 197 201 216 224 215 220 217 218 214 212 224 233 231 233 239 229 229 178 144 25 359 351 58 90 121 108 107 79 126 127 97 62 73 43 60 60 51 66 73
189 198 201 208 204 217 215 211 208 219 224 213 202 212 219 233 226 229 216 199 218 168 153 114 345 45 119 136 132 114 103 96 75 118 112 73 92 65 52 42 45 49 49
188 190 207 215 224 231 234 213 205 209 225 225 212 213 216 228 220 199 191 190 188 155 137 140 144 146 151 164 135 121 112 108 105 104 89 80 92 53 80 90 56 56 36
45 16 335 305 261 248 240 226 226 217 220 227 213 213 222 214 196 184 191 183 173 150 147 124 58 93 145 156 142 142 131 117 123 113 105 96 129 124 143 223 103 84 8
54 45 24 360 319 272 254 235 221 228 231 212 202 218 217 214 183 185 173 175 166 159 162 135 100 111 126 145 141 140 153 147 139 130 146 162 196 178 133 167 131 109 236
58 43 25 1 348 341 305 261 242 237 228 224 215 206 223 207 181 181 184 171 165 170 163 154 128 127 134 138 129 135 141 172 166 148 157 188 177 185 153 147 213 133 195
48 32 32 19 355 340 330 311 285 260 235 223 223 219 203 198 183 177 183 167 165 174 168 159 145 157 152 144 138 141 149 159 191 184 182 192 194 170 166 155 159 122 49
11 8 6 10 360 355 350 338 324 286 247 231 223 218 202 187 186 179 175 161 164 174 172 153 146 152 154 149 141 151 185 200 183 235 222 206 198 177 154 123 136 117 6
334 340 347 358 355 341 336 331 321 307 265 246 281 14 50 62 38 2 311 147 151 163 171 155 159 161 158 161 154 159 184 222 310 68 158 163 182 178 169 173 152 148 160
294 304 319 332 330 317 315 319 315 308 119 104 104 95 105 119 100 68 30 304 165 190 192 189 175 164 174 177 165 168 196 170 119 142 124 122 127 147 179 172 181 148 163
295 306 301 277 278 309 325 322 320 312 123 121 121 124 139 148 147 138 149 147 183 190 195 192 184 171 182 183 180 183 183 157 120 126 130 139 141 155 187 192 201 201 215
302 286 281 290 286 256 283 317 312 279 286 149 148 152 168 182 191 175 157 168 190 201 190 186 175 173 172 179 189 181 160 168 139 139 171 183 205 157 125 118 124 203 345
272 276 274 262 268 259 220 222 263 256 229 220 190 179 189 210 222 219 184 192 192 187 171 165 162 170 165 154 137 159 171 175 168 162 182 167 128 140 160 160 154 147 81
271 265 264 259 252 247 242 223 216 243 246 229 220 212 205 221 230 332 301 171 198 159 125 120 123 144 163 163 140 156 150 168 176 148 175 187 169 159 181 168 148 148 157
265 266 257 257 255 240 242 233 229 230 263 268 269 257 261 244 237 177 139 119 128 137 101 147 149 170 178 171 161 162 154 180 195 164 211 219 191 176 171 155 140 175 190
248 260 262 250 253 239 227 207 251 220 225 216 266 269 241 245 225 146 142 139 146 132 128 152 167 179 166 167 156 143 157 183 173 172 203 218 192 159 155 182 171 163 195
255 245 256 257 250 237 229 215 209 225 255 222 134 2 279 217 176 160 143 115 140 276 145 165 176 169 168 155 152 134 135 158 148 147 174 182 181 158 160 161 179 185 197
249 248 251 248 251 238 228 216 203 221 244 242 188 124 81 44 125 145 144 151 163 179 156 155 151 147 157 130 133 127 141 154 139 129 138 128 137 148 147 151 167 183 172
252 251 247 250 251 243 233 228 219 222 233 209 212 180 152 175 160 164 162 159 164 166 162 155 146 142 142 144 130 128 130 132 137 124 127 117 90 68 105 121 107 127 147
259 258 248 245 244 243 225 236 218 194 213 212 208 172 176 174 175 172 171 184 168 166 163 152 146 144 141 135 117 130 125 121 121 118 123 117 120 116 106 91 94 101 95
241 250 244 232 235 233 221 223 211 198 207 198 171 142 158 167 141 154 168 155 139 133 133 131 131 127 148 117 129 125 122 126 119 114 103 92 99 98 108 109 97 90 97
246 241 243 242 245 249 235 217 213 209 189 182 163 154 147 137 137 149 144 120 129 122 101 117 117 98 87 81 93 128 140 142 147 135 123 118 111 104 91 86 88 94 81
231 233 234 235 250 248 245 208 192 187 166 147 154 154 155 137 136 115 119 116 102 90 108 101 102 103 92 78 81 99 112 120 117 109 122 125 126 116 116 114 108 94 104
195 212 236 242 245 248 224 188 165 142 137 138 132 131 119 119 111 112 107 109 103 99 89 92 97 103 98 103 115 113 120 115 113 115 109 107 117 113 108 103 106 98 97
121 112 15 288 316 40 128 144 140 140 133 129 129 127 126 123 123 119 115 118 121 119 109 123 128 124 119 130 135 122 114 112 107 105 105 110 122 115 104 108 106 94 78